Regional Weather Roundup
Issued by NWS

Home | Current Version | Previous Version | Graphics & Text | Print | Product List | Glossary Off
Versions: 1 2 3 4 5 6 7 8 9 10 11 12 13 14 15 16 17 18 19 20 21 22 23 24 25 26 27 28 29 30 31 32 33 34 35 36 37 38 39 40 41 42 43 44 45 46 47 48 49 50

000
ASUS43 KOAX 212310
RWRNE

WEATHER ROUNDUP FOR NEBRASKA
NATIONAL WEATHER SERVICE OMAHA NE
600 PM CDT SAT APR 21 2018

NOTES: SATELLITE DATA IS BEING USED TO AUGMENT CLOUD COVER ABOVE
       12000 FEET.
       "FAIR" INDICATES FEW OR NO CLOUDS BELOW 12,000 FEET WITH NO
       SIGNIFICANT WEATHER AND/OR OBSTRUCTIONS TO VISIBILITY.


NEZ001>004-019>022-054>056-220000-
NEBRASKA PANHANDLE

CITY           SKY/WX    TMP DP  RH WIND       PRES   REMARKS
SCOTTSBLUFF    CLOUDY    45  39  79 SE10      30.17F
ALLIANCE       CLOUDY    43  37  79 S7        30.18F
CHADRON        CLOUDY    48  38  68 SE13      30.17S
GORDON         CLOUDY    44  38  80 S8        30.20S
KIMBALL        CLOUDY    42  35  76 E8        30.17F
SIDNEY         CLOUDY    42  33  70 CALM      30.19F
$$

NEZ057>060-069>072-079>082-220000-
SOUTHWEST NEBRASKA

CITY           SKY/WX    TMP DP  RH WIND       PRES   REMARKS
NORTH PLATTE   CLOUDY    47  37  68 E6        30.21S
IMPERIAL       CLOUDY    41  39  93 NE6       30.22R
LEXINGTON      CLOUDY    45  38  77 E10       30.22R
MCCOOK         CLOUDY    45  39  79 NE5       30.21R
OGALLALA       CLOUDY    42  38  86 E7        30.22S
$$

NEZ005>010-023>029-035>040-094-220000-
NORTH CENTRAL NEBRASKA

CITY           SKY/WX    TMP DP  RH WIND       PRES   REMARKS
VALENTINE      CLOUDY    50  36  58 SE9       30.23F
AINSWORTH      CLOUDY    47  39  74 E10       30.24S
BROKEN BOW     CLOUDY    44  39  82 E12       30.22S
O`NEILL        CLOUDY    48  36  62 NE5       30.26S
ORD            CLOUDY    46  38  73 NE9       30.23S
THEDFORD       CLOUDY    47  37  69 E5        30.22S
$$

NEZ041-046>049-061>064-073>077-083>087-220000-
SOUTH CENTRAL NEBRASKA

CITY           SKY/WX    TMP DP  RH WIND       PRES   REMARKS
GRAND ISLAND   CLOUDY    45  40  82 CALM      30.23S
AURORA         CLOUDY    46  41  85 NE6       30.22S
HASTINGS       CLOUDY    43  40  89 NE7       30.22S
HEBRON         CLOUDY    47  42  80 NE9       30.21R
HOLDREGE       CLOUDY    42  41  98 NE5       30.22R FOG
KEARNEY        CLOUDY    44  39  82 E13       30.23R
YORK             N/A     48  37  66 E7        30.22S
$$

NEZ011>018-030>034-042>045-220000-
NORTHEAST NEBRASKA

CITY           SKY/WX    TMP DP  RH WIND       PRES   REMARKS
NORFOLK        CLOUDY    50  34  54 NE3       30.22S
ALBION         CLOUDY    49  34  56 CALM      30.24S
BLAIR          CLOUDY    53  32  43 E3        30.24S
COLUMBUS       CLOUDY    50  31  48 E8        30.24S
FREMONT        CLOUDY    54  30  40 CALM      30.24S
TEKAMAH        CLOUDY    54  29  38 E8        30.25R
WAYNE          CLOUDY    54  32  43 E9        30.24S
$$

NEZ050>053-065>068-078-088>093-220000-
SOUTHEAST NEBRASKA

CITY           SKY/WX    TMP DP  RH WIND       PRES   REMARKS
LINCOLN        CLOUDY    49  41  74 N6        30.22F
OMAHA EPPLEY   CLOUDY    55  33  43 NE16G22   30.23F
BEATRICE       CLOUDY    48  43  82 CALM      30.21R
FALLS CITY     CLOUDY    53  41  63 N9        30.17S
NEBRASKA CITY  CLOUDY    56  33  40 NE17      30.19S
PLATTSMOUTH    CLOUDY    53  35  49 N13G21    30.22S
$$

NEZ044-045-051>053-067-220000-
OMAHA AREA

CITY           SKY/WX    TMP DP  RH WIND       PRES   REMARKS
OMAHA EPPLEY   CLOUDY    55  33  43 NE16G22   30.23F
BLAIR          CLOUDY    53  32  43 E3        30.24S
FREMONT        CLOUDY    54  30  40 CALM      30.24S
MILLARD        CLOUDY    55  35  46 E8        30.24S
OFFUTT AFB     PTSUNNY   53  36  53 NE7       30.22F
PLATTSMOUTH    CLOUDY    53  35  49 N13G21    30.22S
WAHOO          CLOUDY    53  27  36 NE6       30.23F
$$




USA.gov is the U.S. government's official web portal to all federal, state and local government web resources and services.